Location: Zagreb
(45.8000°N, 16.0000°E)
Time: 07:09:06
(UTC+02:00)

Courier 1B - Pass Details

Date: 18 August 2020
Orbit: 962 x 1209 km, 28.3° (Epoch: 27 September)

Event Time Altitude Azimuth Distance (km) Brightness Sun altitude
Rises 15:40:57 0° 211° (SSW) 4,098 11.4 42.7°
Reaches altitude 10° 15:45:42 10° 186° (S) 3,136 10.7 41.9°
Maximum altitude 15:49:02 13° 161° (SSE) 2,884 10.2 41.4°
Drops below altitude 10° 15:52:21 10° 135° (SE) 3,111 10.1 40.9°
Sets 15:57:00 0° 110° (ESE) 4,040 10.4 40.2°
